N7BTW-13 Weather Reports


Display with metric or nautical units.
time (UTC)temp
F
wind
direction
speed
MPH
gust
MPH
rain 1hr
in
rain 24hr
in
rain mn
in
humidity
%
barometer
mb
20260505053007 59 259 2.0 4.0 0.00 0.00 0.00 85 1012.7
20260505052008 59 236 1.0 3.0 0.00 0.00 0.00 85 1012.6
20260505051005 60 192 2.0 3.0 0.00 0.00 0.00 84 1012.5
20260505041010 65 212 1.0 2.0 0.00 0.00 0.00 76 1011.8
20260505040010 66 250 2.0 4.0 0.00 0.00 0.00 74 1011.5
20260505035011 67 252 2.0 4.0 0.00 0.00 0.00 73 1011.4
20260505034007 68 243 2.0 3.0 0.00 0.00 0.00 73 1011.2
20260505033008 69 235 1.0 3.0 0.00 0.00 0.00 72 1011.0
20260505032008 70 278 2.0 6.0 0.00 0.00 0.00 70 1010.9
20260505031008 71 17 2.0 4.0 0.00 0.00 0.00 69 1010.9
20260505030007 71 215 2.0 4.0 0.00 0.00 0.00 67 1010.8
20260505025008 72 224 2.0 3.0 0.00 0.00 0.00 66 1010.7
20260505024006 73 239 1.0 2.0 0.00 0.00 0.00 65 1010.6
20260505023006 74 271 2.0 3.0 0.00 0.00 0.00 64 1010.6
20260505022008 74 230 2.0 3.0 0.00 0.00 0.00 64 1010.5
20260505021010 74 195 2.0 4.0 0.00 0.00 0.00 65 1010.5
20260505020012 75 196 3.0 5.0 0.00 0.00 0.00 64 1010.5
20260505015006 75 247 2.0 3.0 0.00 0.00 0.00 63 1010.5
20260505014007 77 192 2.0 4.0 0.00 0.00 0.00 62 1010.5
20260505013007 77 222 2.0 4.0 0.00 0.00 0.00 61 1010.5
20260505012007 78 195 2.0 4.0 0.00 0.00 0.00 61 1010.5
20260505011007 78 212 3.0 5.0 0.00 0.00 0.00 60 1010.6
20260505010011 79 66 2.0 3.0 0.00 0.00 0.00 59 1010.8
20260505005008 79 234 3.0 4.0 0.00 0.00 0.00 59 1010.8
20260505004007 80 232 3.0 5.0 0.00 0.00 0.00 58 1010.8
20260505003009 79 193 2.0 3.0 0.00 0.00 0.00 58 1010.8
20260505002011 79 210 3.0 5.0 0.00 0.00 0.00 59 1010.8
20260505001006 80 217 3.0 5.0 0.00 0.00 0.00 58 1010.9
20260505000007 79 196 3.0 5.0 0.00 0.00 0.00 59 1011.0
20260504235007 79 253 3.0 5.0 0.00 0.00 0.00 59 1011.0
20260504234009 79 184 4.0 7.0 0.00 0.00 0.00 59 1011.1
20260504233006 79 201 3.0 4.0 0.00 0.00 0.00 59 1011.1
20260504232006 79 236 2.0 3.0 0.00 0.00 0.00 59 1011.2
20260504231010 78 248 2.0 3.0 0.00 0.00 0.00 60 1011.3
20260504230013 77 242 3.0 5.0 0.00 0.00 0.00 60 1011.3
20260504225007 77 195 3.0 5.0 0.00 0.00 0.00 61 1011.6
20260504224011 77 194 3.0 6.0 0.00 0.00 0.00 62 1011.7
20260504223007 77 196 2.0 5.0 0.00 0.00 0.00 60 1011.8
20260504222008 77 299 2.0 4.0 0.00 0.00 0.00 61 1011.9
20260504221008 76 198 2.0 5.0 0.00 0.00 0.00 61 1012.1
20260504220006 75 241 2.0 3.0 0.00 0.00 0.00 61 1012.2
20260504215009 75 241 3.0 4.0 0.00 0.00 0.00 63 1012.3
20260504214010 75 192 2.0 5.0 0.00 0.00 0.00 62 1012.4
20260504213008 74 236 2.0 5.0 0.00 0.00 0.00 63 1012.5
20260504212009 73 218 2.0 3.0 0.00 0.00 0.00 64 1012.6
20260504211007 73 204 3.0 4.0 0.00 0.00 0.00 65 1012.9
20260504210008 72 268 3.0 5.0 0.00 0.00 0.00 65 1013.0
20260504205010 72 254 3.0 5.0 0.00 0.00 0.00 65 1013.1
20260504204007 72 229 2.0 4.0 0.00 0.00 0.00 67 1013.3
20260504203008 71 293 2.0 4.0 0.00 0.00 0.00 68 1013.5
20260504202011 70 225 2.0 4.0 0.00 0.00 0.00 67 1013.5
20260504201010 70 223 2.0 4.0 0.00 0.00 0.00 69 1013.6
20260504200006 69 218 2.0 3.0 0.00 0.00 0.00 71 1013.7
20260504195006 69 270 2.0 5.0 0.00 0.00 0.00 71 1013.7
20260504194008 68 291 2.0 4.0 0.00 0.00 0.00 71 1013.8
20260504193007 68 218 2.0 4.0 0.00 0.00 0.00 72 1014.0
20260504192011 67 239 3.0 5.0 0.00 0.00 0.00 72 1014.0
20260504191006 66 253 3.0 5.0 0.00 0.00 0.00 74 1014.0
20260504190008 65 197 3.0 5.0 0.00 0.00 0.00 76 1014.1
20260504185010 64 260 2.0 3.0 0.00 0.00 0.00 78 1014.2
20260504184009 64 278 2.0 3.0 0.00 0.00 0.00 79 1014.2
20260504183010 63 251 1.0 2.0 0.00 0.00 0.00 78 1014.2
20260504182006 63 231 2.0 4.0 0.00 0.00 0.00 79 1014.1
20260504181008 62 199 3.0 4.0 0.00 0.00 0.00 80 1014.2
20260504180006 62 225 1.0 3.0 0.00 0.00 0.00 80 1014.2
20260504175008 62 216 2.0 4.0 0.00 0.00 0.00 81 1014.2
20260504174007 61 297 2.0 3.0 0.00 0.00 0.00 82 1014.3
20260504173010 61 213 2.0 3.0 0.00 0.00 0.00 83 1014.2
20260504172008 61 232 2.0 3.0 0.00 0.00 0.00 83 1014.1
20260504171005 60 274 1.0 2.0 0.00 0.00 0.00 84 1014.1
20260504151010 57 0.0 0.0 0.00 0.00 0.00 92 1013.6
20260504141007 50 0.0 0.0 0.00 0.00 0.00 99 1013.0
20260504081010 63 0.0 0.0 0.00 0.00 0.00 68 1008.8